Regional Weather Roundup
Issued by NWS Boston, MA

Current Version | Previous Version | Text Only | Print | Product List | Glossary On
Versions: 1 2 3 4 5 6 7 8 9 10 11 12 13 14 15 16 17 18 19 20 21 22 23 24 25 26 27 28 29 30 31 32 33 34 35 36 37 38 39 40 41 42 43 44 45 46 47 48 49 50
000
ASUS41 KBOX 200410
RWRBOX

REGIONAL WEATHER ROUNDUP
NATIONAL WEATHER SERVICE TAUNTON MA
1200 AM EDT WED AUG 20 2014

NOTE:  "FAIR" INDICATES FEW OR NO CLOUDS BELOW 12,000 FEET WITH NO
SIGNIFICANT WEATHER AND/OR OBSTRUCTIONS TO VISIBILITY.  THE FOLLOWING
OBSERVATION LOCATIONS DO NOT REPORT PRESENT WEATHER...PROVINCETOWN...
SMITHFIELD...BLOCK ISLAND...KEENE...AND OXFORD.

MAZALL-200500-
EASTERN MASSACHUSETTS

CITY           SKY/WX    TMP DP  RH WIND       PRES   REMARKS
BOSTON         PTCLDY    64  56  75 S6        29.96
BEVERLY        PTCLDY    61  56  83 CALM      29.96R
LAWRENCE       PTCLDY    59  53  80 CALM      29.98R
BEDFORD        PTCLDY    54  53  97 CALM      29.95R
BLUE HILL        N/A     62  54  74 S9        29.97R
NORWOOD        PTCLDY    54  52  93 CALM      29.96R
MARSHFIELD     FAIR      59  57  94 W3        29.98R
PLYMOUTH       CLEAR     57  53  86 CALM      29.97R
TAUNTON        PTCLDY    53  52  96 CALM      29.96R
NEW BEDFORD    CLEAR     56  55  97 CALM      29.96R
$$

MAZALL-200500-
CAPE COD AND THE ISLANDS

CITY           SKY/WX    TMP DP  RH WIND       PRES   REMARKS
FALMOUTH       PTCLDY    59  57  94 CALM      29.97R
HYANNIS        CLEAR     57  54  89 CALM      29.96R
CHATHAM        CLEAR     61  58  90 CALM      29.97S
PROVINCETOWN   PTCLDY    61  57  88 MISG      29.97R
NANTUCKET      CLEAR     57  55  93 SE5       29.97R
MARTHAS VNYRD  PTCLDY    49  48  97 CALM      29.97R FOG
$$

MAZALL-200500-
CENTRAL AND WESTERN MASSACHUSETTS

CITY           SKY/WX    TMP DP  RH WIND       PRES   REMARKS
WORCESTER      PTCLDY    61  54  77 SW7       29.98R
FITCHBURG      PTCLDY    58  54  86 N3        29.98R
ORANGE         PTCLDY    57  55  93 CALM      29.97R
SPRINGFIELD    MOCLDY    56  55  95 NE1       29.96R
WESTFIELD      MOCLDY    60  57  89 CALM      29.96R
NORTH ADAMS    CLEAR     54  53  97 CALM      29.97S
PITTSFIELD     PTCLDY    54  51  90 CALM      29.97R
$$

RIZALL-200500-
RHODE ISLAND

CITY           SKY/WX    TMP DP  RH WIND       PRES   REMARKS
PROVIDENCE     PTCLDY    62  57  83 CALM      29.97S
NEWPORT        CLEAR     61  58  90 CALM      29.97R
BLOCK ISLAND   PTCLDY    64  61  88 SE3       29.97R
SMITHFIELD     PTCLDY    57  50  77 CALM      29.97R
WESTERLY       CLEAR     60  57  89 CALM      29.97R
$$

CTZALL-200500-
CONNECTICUT

CITY           SKY/WX    TMP DP  RH WIND       PRES   REMARKS
BRADLEY INTL   MOCLDY    66  57  72 S3        29.95R
HARTFORD       PTCLDY    63  58  83 CALM      29.95R
BRIDGEPORT     PTCLDY    70  66  87 CALM      29.95R
DANBURY        PTCLDY    65  61  87 CALM      29.97R
GROTON         CLEAR     59  59 100 CALM      29.95R
NEW HAVEN      PTCLDY    65  62  90 CALM      29.95R
CHESTER        FAIR      63  61  94 CALM      29.97S
MERIDEN        PTCLDY    61  58  90 CALM      29.96R
WILLIMANTIC    PTCLDY    59  56  89 CALM      29.97R
OXFORD         PTCLDY    61  55  82 CALM      29.98S
$$

MEZ002-015-021-024-NHZ003-005-008-011-012-014-VTZ005-008-200500-
NORTHERN NEW ENGLAND

CITY           SKY/WX    TMP DP  RH WIND       PRES   REMARKS
PORTLAND ME    CLEAR     58  54  86 CALM      29.96R
BANGOR ME      CLEAR     62  56  80 SW7       29.94S
CONCORD NH     CLEAR     56  55  97 CALM      29.97R
MANCHESTER NH  MOCLDY    63  54  72 CALM      29.96R
NASHUA NH      PTCLDY    60  55  83 CALM      29.98R
PORTSMOUTH NH  MOCLDY    58  55  91 SW3       29.96R
JAFFREY NH     PTCLDY    53  51  93 CALM      30.00R
KEENE NH       PTCLDY    55  46  71 CALM      29.98R
BURLINGTON VT  CLEAR     58  55  90 E3        29.95R
MT. WASHINGTON PTCLDY    46  32  57 W10         N/A
$$

NYZ052-076-200500-
EASTERN NEW YORK

CITY           SKY/WX    TMP DP  RH WIND       PRES   REMARKS
ALBANY         PTCLDY    61  57  87 CALM      29.94R
NEW YORK CITY  MOCLDY    72  65  78 SE6       29.94R
$$

ANZALL-200500-
MARINE OBSERVATIONS

STATION/POSITION TIME  TEMP    WIND        PRES    VSBY  WAVE
                       AIR SEA DIR/SP/G                  HT/PER
                 (UTC) (F)     (DEG/KT/KT) (MB)    (MI)  (FT/S)
BOSTON BUOY      0350   65 65  170/  8/ 10 1014.8R         1
BUZZARDS BAY     0300          160/  7/  7 1015.3R
NANTUCKET SOUND  0350   67 69  140/  6/  8 1014.6R         0
MASS BAY-STELLWA 0304   65 65  180/  6/  8   N/A    1 7/8  1
ISLE OF SHOALS   0300   64     200/  9/  9 1013.8R
S OF BLOCK IS    0308      69                N/A           1/ 8
$$

......................KEY.........................
  SKY/WX - SKY CONDITION/PRESENT WEATHER
  TMP    - TEMPERATURE IN FAHRENHEIT
  DWPT   - DEWPOINT IN FAHRENHEIT
  RH     - RELATIVE HUMIDITY IN PERCENT
  WIND   - DIRECTION AND SPEED IN MPH
  PRES   - MEAN SEA LEVEL PRESSURE IN INCHES OF HG
  WCI    - WIND CHILL INDEX
  VSB    - VISIBILITY IN MILES
  HX     - HEAT INDEX
  TC     - TEMPERATURE IN CELSIUS
  VRB    - VARIABLE WIND DIRECTION
  N/A    - NOT AVAILABLE


USA.gov is the U.S. government's official web portal to all federal, state and local government web resources and services.